TimeCST,TemperatureF,Dew PointF,Humidity,Sea Level PressureIn,VisibilityMPH,Wind Direction,Wind SpeedMPH,Gust SpeedMPH,PrecipitationIn,Events,Conditions,WindDirDegrees,DateUTC
12:53 AM,26.6,19.4,74,30.25,10.0,SSW,5.8,-,N/A,,Clear,200,2013-01-23 06:53:00
1:53 AM,25.0,19.9,81,30.27,10.0,Calm,Calm,-,N/A,,Clear,0,2013-01-23 07:53:00
2:53 AM,24.1,19.9,84,30.27,10.0,Calm,Calm,-,N/A,,Clear,0,2013-01-23 08:53:00
3:53 AM,23.0,19.0,85,30.26,10.0,Calm,Calm,-,N/A,,Clear,0,2013-01-23 09:53:00
4:53 AM,23.0,19.9,88,30.26,10.0,Calm,Calm,-,N/A,,Clear,0,2013-01-23 10:53:00
5:53 AM,23.0,19.4,86,30.22,10.0,Calm,Calm,-,N/A,,Clear,0,2013-01-23 11:53:00
6:53 AM,24.1,21.0,88,30.27,10.0,Calm,Calm,-,N/A,,Clear,0,2013-01-23 12:53:00
7:53 AM,28.0,25.0,88,30.27,10.0,Calm,Calm,-,N/A,,Overcast,0,2013-01-23 13:53:00
8:53 AM,34.0,28.9,82,30.27,9.0,Calm,Calm,-,N/A,,Clear,0,2013-01-23 14:53:00
9:53 AM,46.9,36.0,66,30.27,10.0,South,3.5,-,N/A,,Clear,180,2013-01-23 15:53:00
10:53 AM,54.0,41.0,62,30.27,10.0,SSW,11.5,-,N/A,,Clear,200,2013-01-23 16:53:00
11:53 AM,55.9,41.0,57,30.24,10.0,SSW,9.2,-,N/A,,Clear,200,2013-01-23 17:53:00
12:53 PM,57.9,41.0,53,30.19,10.0,WSW,10.4,-,N/A,,Clear,240,2013-01-23 18:53:00
1:53 PM,61.0,39.9,46,30.17,10.0,SSW,9.2,-,N/A,,Clear,210,2013-01-23 19:53:00
2:53 PM,61.0,39.9,46,30.17,10.0,SSW,10.4,-,N/A,,Clear,210,2013-01-23 20:53:00
3:53 PM,61.0,39.9,46,30.16,10.0,SSW,8.1,-,N/A,,Clear,210,2013-01-23 21:53:00
4:53 PM,57.9,39.9,51,30.16,10.0,SW,5.8,-,N/A,,Clear,220,2013-01-23 22:53:00
5:53 PM,51.1,39.0,63,30.19,10.0,Calm,Calm,-,N/A,,Clear,0,2013-01-23 23:53:00
6:53 PM,46.0,37.9,73,30.19,10.0,Calm,Calm,-,N/A,,Clear,0,2013-01-24 00:53:00
7:53 PM,39.9,36.0,86,30.21,10.0,Calm,Calm,-,N/A,,Clear,0,2013-01-24 01:53:00
8:53 PM,37.4,35.6,93,30.20,10.0,Calm,Calm,-,N/A,,Clear,0,2013-01-24 02:53:00
9:53 PM,37.9,36.0,93,30.22,10.0,Calm,Calm,-,N/A,,Overcast,0,2013-01-24 03:53:00
10:53 PM,39.9,37.0,89,30.24,10.0,Calm,Calm,-,N/A,,Overcast,0,2013-01-24 04:53:00
11:53 PM,45.0,37.9,76,30.23,10.0,NE,5.8,-,N/A,,Overcast,50,2013-01-24 05:53:00